This demonstration page uses our WeatherBlox Daily Observations layout. Learn more.

Left ArrowRight Arrow

39.92423, -83.80882

Hourly Observations for February 22, 2021

Temp ( °F °C ) Dew Point ( °F °C ) Humidity (%) Winds ( mph kmh ) Pressure ( in mb ) Visibility ( mi km ) Precip ( " mm )
12:56 am 00:56 Cloudy 38 3.3 28 -2.2 68 68 S 10 17 29.95 1014 10 16 0.00 0.00
1:56 am 01:56 Cloudy with Light Rain 42 5.6 30 -1.1 62 62 SSW 15 24 29.90 1013 10 16 0.00 0.00
2:56 am 02:56 Cloudy with Light Rain 41 5 33 0.6 73 73 SSW 23 37 29.86 1011 10 16 0.00 0.00
3:56 am 03:56 Cloudy 41 5 34 1.1 76 76 SW 18 30 29.83 1010 10 16 0.00 0.00
4:30 am 04:30 Cloudy with Light Rain 39 4 36 2 87 87 SW 20 31 29.83 1010 10 16 0.00 0.00
4:56 am 04:56 Cloudy with Light Rain 39 3.9 37 2.8 93 93 SW 22 35 29.82 1010 8 13 0.00 0.00
5:30 am 05:30 Cloudy with Light Rain 37 3 37 3 100 100 SSW 14 22 29.82 1010 9 14 0.00 0.00
5:56 am 05:56 Cloudy with Light Rain 38 3.3 38 3.3 100 100 SW 14 22 29.81 1010 9 14 0.00 0.00
6:07 am 06:07 Cloudy 37 3 37 3 100 100 SSW 16 26 29.81 1009 10 16 0.00 0.00
6:56 am 06:56 Cloudy with Light Rain 38 3.3 38 3.3 100 100 SW 17 28 29.80 1009 4 6 0.00 0.00
7:56 am 07:56 Cloudy with Light Rain 38 3.3 38 3.3 100 100 WSW 16 26 29.80 1009 10 16 0.00 0.00
8:56 am 08:56 Cloudy with Light Rain 36 2.2 36 2.2 100 100 W 24 39 29.84 1010 10 16 0.00 0.00
9:56 am 09:56 Cloudy 35 1.7 32 0 89 89 W 22 35 29.86 1011 10 16 0.00 0.00
10:56 am 10:56 Cloudy 35 1.7 32 0 89 89 W 18 30 29.87 1012 9 14 0.00 0.00
11:09 am 11:09 Cloudy 36 2 32 0 87 87 W 22 35 29.89 1012 9 14 0.00 0.00
11:47 am 11:47 Cloudy 36 2 30 -1 81 81 W 22 35 29.90 1013 10 16 0.00 0.00
11:56 am 11:56 Cloudy 35 1.7 30 -1.1 82 82 W 21 33 29.89 1012 10 16 0.00 0.00
12:56 pm 12:56 Cloudy 35 1.7 30 -1.1 82 82 W 21 33 29.90 1012 10 16 0.00 0.00
1:56 pm 13:56 Cloudy 35 1.7 29 -1.7 78 78 W 21 33 29.89 1012 10 16 0.00 0.00
2:56 pm 14:56 Cloudy 35 1.7 30 -1.1 82 82 W 21 33 29.90 1013 10 16 0.00 0.00
3:56 pm 15:56 Cloudy 35 1.7 29 -1.7 78 78 W 16 26 29.92 1013 10 16 0.00 0.00
4:56 pm 16:56 Cloudy 35 1.7 30 -1.1 82 82 WSW 16 26 29.93 1014 10 16 0.00 0.00
5:56 pm 17:56 Cloudy 35 1.7 30 -1.1 82 82 WSW 13 20 29.93 1014 10 16 0.00 0.00
6:36 pm 18:36 Partly Cloudy 36 2 30 -1 81 81 SW 12 19 29.94 1014 10 16 0.00 0.00
6:56 pm 18:56 Mostly Clear 34 1.1 30 -1.1 85 85 SW 10 17 29.93 1014 10 16 0.00 0.00
7:56 pm 19:56 Clear 34 1.1 30 -1.1 85 85 SSW 10 17 29.93 1013 10 16 0.00 0.00
8:56 pm 20:56 Clear 34 1.1 30 -1.1 85 85 SSW 13 20 29.91 1013 10 16 0.00 0.00
9:56 pm 21:56 Clear 33 0.6 30 -1.1 89 89 SSW 10 17 29.92 1013 9 14 0.00 0.00
10:56 pm 22:56 Cloudy 33 0.6 30 -1.1 89 89 SSW 10 17 29.89 1012 9 14 0.00 0.00
11:56 pm 23:56 Cloudy 34 1.1 30 -1.1 85 85 SW 14 22 29.85 1011 10 16 0.00 0.00

Powered by AerisWeather